Track YAOGAN 16B now! 10-day predictions YAOGAN 16B is classified as:
1 39012U 12066B 24325.48027296 .00000040 00000-0 14034-3 0 9993 2 39012 63.3603 330.9366 0388068 22.3647 339.3795 13.45393057588915